User: anonymous   Login
Location: Gradaro
(45.0833°N, 10.8833°E)
Time: 18:45:44
(UTC+00:00)
Language:

FENGYUN 1C DEB - Orbit

View from above orbital plane
View from above orbital plane
View from above satellite
View from above satellite

Ground track
Ground track

The orbit data is extracted from the following two-line orbital elements,

1 30276U 99025YM  21172.57495481  .00000441  00000-0  24580-3 0  9990
2 30276  98.9784 210.1709 0030392  91.1821 269.2834 14.15956566743369
Epoch (UTC): 21 June 2021 13:47:56
Eccentricity: 0.0030392
inclination: 98.9784°
perigee height: 817 km
apogee height: 861 km
right ascension of ascending node: 210.1709°
argument of perigee: 91.1821°
revolutions per day: 14.15956566
mean anomaly at epoch: 269.2834°
orbit number at epoch: 74336

The dashed part of the orbit path shows where the satellite is in the earth's shadow,  

DLR